Погода Батамай

Погода Батамай : погода сейчас, прогноз погоды и архив. Всё, что Вы хотите узнать о погоде Батамай!

Поиск расширенной информации на нашем сайте:

Другие новости

Новости СМИ2

Главная страница сайта

Новости сайта

02.10.2013

Напоминаем, что на нашем новом сайте вы можете получить высокодетализированные прогнозы погоды по пунктам России, СНГ и мира (включающие важные для авиации метеовеличины, такие как направление и скорость ветра, видимость, явления погоды, количество и форма облачности, нижняя и верхняя граница облачности), а также ознакомиться с разнообразными материалами по авиационной метеорологии и подборкой полезных ссылок на эту тему.

Сайт Метеоцентр.Азия посвящён разработке технологий оптимизации авиаметеорологического обслуживания, включая проектирование и перспективное создание нескольких автоматизированных авиаметеорологических систем:
- система выпуска высокодетальных прогностических карт явлений погоды для нижнего воздушного пространства по России и ближнему зарубежью;
- система верификации прогнозов TAF (выпускаемых синоптиками официальных АМСГ РФ и ближнего зарубежья) и AUTOTAF (выпускаемых сайтом Метеоцентр.Азия) - выявление ошибок, онлайн-сопоставление с фактической погодой METAR, автоматическое внесение коррективов в прогнозы при резком отклонении фактической погоды от прогноза, подсчёт оправдываемости прогнозов по элементам и в целом;
- система обработки, анализа и отображения авиаметеорологической информации для применения провайдерами метеорологической информации.

Рекомендуем: отделка лоджии внутри

Погода Батамай - сегодня

Время (UTC), дата Ветер
(°,м/с) 
Видим.   Явления Облачность Т
(°С)
Тd
(°С)
f(%) Тe
(°С)
Pmin
(гПа)
dP
(гПа)
Po
(мм)
O2
(г/м3)
Тmin Tmax R s Состояние
почвы
06 25.06.17 230 (ЮЗ) 20000 м    8/0 верхняя 
[Cs]
+22.1 +13.3 57 +28  1008.8  -1  750  277           
09 25.06.17 230 (ЮЗ) 20000 м    6/0 верхняя 
[Ci fib]
+22.3 +14.1 60 +29  1007.8  -1  749  276           
12 25.06.17 230 (ЮЗ) 20000 м    3/0 верхняя 
[Ci fib]
+20.9 +13.8 64 +28  1008.4  0.6  749  278    +24.2       
15 25.06.17 310 (СЗ) 20000 м    1/0 верхняя 
[Ci fib]
+12.6 +10.5 87 +16  1008.9  0.3  750  287           
18 25.06.17 010 (С) 20000 м    1/0 верхняя 
[Ci fib]
+7.5 +6.6 94 +7  1009.3  0.3  750  293           
21 25.06.17 020 (С) 20000 м  дым  ясно 
+10.3 +7.8 84 +11  1010  0.7  750  290           
00 26.06.17 090 (В) 20000 м  дым  ясно 
+20.1 +7.7 45 +20  1009.7  750  280  +7.2        сухая 
03 26.06.17 170 (Ю) 20000 м    4/0 верхняя 
[Ci fib]
+24.3 +5.4 30 +24  1008.7  -0.8  750  277           
06 26.06.17 210 (ЮЗ) 20000 м    3/0 верхняя 
[Ci fib]
+26 +6.6 29 +26  1006.7  -2  748  274           
09 26.06.17 130 (ЮВ) 20000 м    ясно 
+27.3 +4.2 23 +27  1005.5  -1.2  747  273           
12 26.06.17 тихо ()   20000 м    ясно 
+22.6 +8.8 41 +23  1005  747  276    +27.8       
15 26.06.17 030 (СВ) 20000 м    ясно 
+15.1 +6 54 +16  1005.9  0.5  747  284           
18 26.06.17 030 (СВ) 20000 м    ясно 
+12.9 +5.2 59 +13  1006.1  0.2  747  287           
21 26.06.17 030 (СВ) 20000 м  дым  ясно 
+15.1 +7.7 61 +16  1006.6  0.5  748  284           
00 27.06.17 070 (В) 20000 м  дым  ясно 
+23.9 +11.8 47 +28  1006  -0.2  748  275  +11.8        сухая 
03 27.06.17 130 (ЮВ) 20000 м    4/4 600 м 
[Cu hum]
+26.9 +12.7 41 +32  1005.5  -0.5  747  272           
06 27.06.17 120 (ЮВ) 20000 м    ясно 
+28.3 +10.5 33 +30  1003.4  -1.9  746  270           
09 27.06.17 220 (ЮЗ) 20000 м    ясно 
+27.5 +12.2 39 +32  1002.9  -0.5  746  271           
12 27.06.17 тихо ()   20000 м    1/0 верхняя 
[Ci fib]
+25.1 +13.8 49 +32  1002.9  -0.2  745  272    +29.4       
15 27.06.17 060 (СВ) 20000 м    1/0 верхняя 
[Ci fib]
+14.3 +11.9 85 +20  1003.2  745  283           
18 27.06.17 350 (С) 10 км  дым  ясно 
+9.7 +8.7 93 +11  1003.7  0.4  746  289           
21 27.06.17 360 (С) 4000 м  мгла  ясно 
+13.2 +9.3 77 +14  1004.5  0.8  746  285           
00 28.06.17 190 (Ю) 2000 м  мгла  ясно 
+22.5 +12.5 53 +27  1004  -0.1  746  275  +9.2        сухая 
03 28.06.17 220 (ЮЗ) 2000 м  мгла  10/0 верхняя 
[Cs]
+25 +13.6 49 +31  1003.6  -0.4  746  273           
06 28.06.17 220 (ЮЗ) 20000 м  дым  10/0 верхняя 
[Cs]
+28.7 +9.6 30 +29  1002.3  -1.1  745  270           
Время (UTC), дата Ветер
(°,м/с) 
Видим.   Явления Облачность Т
(°С)
Тd
(°С)
f(%) Тe
(°С)
Pmin
(гПа)
dP
(гПа)
Po
(мм)
O2
(г/м3)
Тmin Tmax R s Состояние
почвы

Для получения пояснительной информации подведите курсор к названию столбца.

ПОГОДА Батамай - архив

Всё, что Вы хотите узнать о погоде Батамай - удобно и подробно!

Выберите нужную дату (начиная с 1 января 2015* года) и нажмите кнопку "Найти".
Будут отображены архивные сводки погоды по пункту Батамай, начиная с указанной даты.


Отображать данные в формате CSV (для использования в таблицах Excel)


Внимание! Наш архив погоды предназначен исключительно для личного некоммерческого использования в познавательных целях. Если Вам необходимы официальные справки о состоянии погоды (для производственных, юридических, коммерческих и т.п. целей), обращайтесь в органы Росгидромета.

*Примечание: данная дата относится к архиву по метеостанциям СССР (Россия, СНГ, Балтия).
Архив по метеостанциям Зарубежной Европы и Азии (кроме Китая) хранится 10 дней, по другим регионам земного шара (Китай, Африка, Америка, Австралия, Океания) - 1 день.

Батамай - район местоположения метеостанции


Название, широта, долгота, высота метеостанции:
Батамай 63.5°ш. 129.5°д. 79 м над ур. моря [Российская Федерация]

Дополнительная информация

В oтличие oт бoльшинства пoгoдных сайтoв мы публикуем пoдрoбную метеoинфoрмацию в детальнoм прoфессиoнальнoм фoрмате.

Характеристики температуры и влажнoсти вoздуха измеряются на высoте 2 м в тени вдали oт зданий и деревьев.
Скoрoсть ветра измеряется на высoте 10 м (на урoвне рoста челoвека скoрoсть ветра ниже в 1.5-2 раза). Если метеoстанция нахoдится в гoрoде или в лесу, тo скoрoсть ветра занижена на 2-4 м/с пo сравнению с oткрытым местoм. Скoрoсть ветра над акватoриями крупных рек и oзёр, а также на вершинах хoлмoв на 2-5 м/с выше, чем в oбычных услoвиях.
Атмoсфернoе давление в разных тoчках местнoсти мoжет значительнo oтличаться oт давления на метеoстанции, в зависимoсти oт услoвий рельефа (при пoдъёме на 10 м давление пoнижается примернo на 1 мм рт.ст.).